1334188829191,93.0598
1334188889191,93.2059
1334188949191,93.1186
1334189009191,93.0453
1334189069191,92.8617
1334189129191,93.0796
1334189189191,93.1529
1334189249191,93.4518
1334189309191,93.5259
1334189369191,92.9217
1334189429191,93.4574
1334189489191,93.2057
1334189549191,93.4547
1334189609191,92.7152
1334189669191,93.4087
1334189729191,93.3751
1334189789191,93.3652
1334189849191,93.3489
1334189909191,93.0871
1334189969191,93.2388
1334190029191,93.1342
1334190089191,93.3067
1334190149191,93.1682
1334190209191,93.2355
1334190269191,92.8266
1334190329191,93.7456
1334190389191,93.5020
1334190449191,93.4121
1334190509191,93.5267
1334190569191,93.4262
1334190629191,93.2314
1334190689191,93.0977
1334190749191,93.4864
1334190809191,93.3056
1334190869191,93.0122
1334190929191,93.2354
1334190989191,93.2052
1334191049191,93.4232
1334191109191,93.3883
1334191169191,93.5734
1334191229191,93.1987
1334191289191,93.6586
1334191349191,93.5420
1334191409191,93.2528
1334191469191,93.4449
1334191529191,93.5956
1334191589191,93.3935
1334191649191,93.4054
1334191709191,94.0195
1334191769191,93.1279
1334191829191,93.3591
1334191889191,93.3565
1334191949191,93.8305
1334192009191,93.8322
1334192069191,93.4596
1334192129191,94.0340
1334192189191,93.8511
1334192249191,93.7836
1334192309191,93.6961
1334192369191,93.5482
1334192429203,93.4363
1334192489203,93.6209
1334192549203,93.6098
1334192609203,93.5197
1334192669203,93.5005
1334192729203,93.8182
1334192789203,93.7441
1334192849203,93.5601
1334192909203,93.5180
1334192969203,93.6418
1334193029203,93.9238
1334193089203,94.0549
1334193149203,93.8642
1334193209203,93.7094
1334193269203,93.8245
1334193329203,94.2208
1334193389203,93.6261
1334193449203,93.9436
1334193509203,93.5123
1334193569203,94.6681
1334193629203,94.0389
1334193689203,93.8151
1334193749203,94.1598
1334193809203,93.6583
1334193869203,94.0127
1334193929203,94.4263
1334193989203,93.5100
1334194049203,93.8634
1334194109203,94.2624
1334194169203,93.5644
1334194229203,94.1873
1334194289203,93.7772
1334194349203,93.6252
1334194409203,93.3673
1334194469203,94.1771
1334194529203,94.1647
1334194589203,93.9853
1334194649203,94.1115
1334194709203,93.7772
1334194769203,93.9329
1334194829203,93.3101
1334194889203,93.4085
1334194949203,94.2692
1334195009203,93.8171
1334195069203,93.7798
1334195129203,93.7942
1334195189203,93.6607
1334195249203,93.7985
1334195309203,93.9092
1334195369203,93.4206
1334195429203,93.9925
1334195489203,94.0548
1334195549203,93.7304
1334195609203,93.6277
1334195669203,93.6656
1334195729203,93.9553
1334195789203,94.1851
1334195849203,93.6781
1334195909203,93.7472
1334195969203,93.7714
1334196029214,93.8217
1334196089214,93.9778
1334196149214,94.2117
1334196209214,93.5909
1334196269214,94.0955
1334196329214,93.9491
1334196389214,93.9303
1334196449214,94.3643
1334196509214,94.3808
1334196569214,93.8034
1334196629214,94.0401
1334196689214,93.5513
1334196749214,93.8016
1334196809214,94.0774
1334196869214,93.5939
1334196929214,94.1896
1334196989214,93.7479
1334197049214,94.0880
1334197109214,93.8498
1334197169214,94.3626
1334197229214,93.8170
1334197289214,93.7733
1334197349214,94.6063
1334197409214,93.7996
1334197469214,94.4418
1334197529214,93.9102
1334197589214,93.5987
1334197649214,94.2816
1334197709214,93.9786
1334197769214,93.8007
1334197829214,94.3089
1334197889214,94.0465
1334197949214,94.1830
1334198009214,93.8946
1334198069214,93.9252
1334198129214,94.3048
1334198189214,93.8796
1334198249214,94.1426
1334198309214,94.1771
1334198369214,93.6294
1334198429214,94.2568
1334198489214,94.2579
1334198549214,94.0185
1334198609214,94.5046
1334198669214,94.2653
1334198729214,94.2154
1334198789214,94.3608
1334198849214,94.4961
1334198909214,94.2798
1334198969214,94.1980
1334199029214,94.1030
1334199089214,94.4160
1334199149214,93.8331
1334199209214,94.3991
1334199269214,94.5144
1334199329214,94.4145
1334199389214,94.0580
1334199449214,94.2525
1334199509214,94.2189
1334199569214,93.9156
1334199629225,94.3532
1334199689225,94.3374
1334199749225,93.7581
1334199809225,94.3152
1334199869225,93.9724
1334199929225,93.8758
1334199989225,94.0934
1334200049225,93.9285
1334200109225,93.8050
1334200169225,93.9154
1334200229225,94.0777
1334200289225,93.6816
1334200349225,93.8663
1334200409225,93.6431
1334200469225,93.8417
1334200529225,94.1945
1334200589225,94.0741
1334200649226,93.6829
1334200709226,93.8133
1334200769226,93.5869
1334200829226,93.9008
1334200889225,94.0112
1334200949225,93.9759
1334201009225,93.3778
1334201069225,93.7353
1334201129225,93.4749
1334201189225,93.5270
1334201249225,93.9034
1334201309225,93.9883
1334201369225,93.7756
1334201429225,93.2229
1334201489225,93.6190
1334201549225,94.2146
1334201609225,93.8428
1334201669225,93.8146
1334201729225,94.1189
1334201789225,93.5248
1334201849225,93.7817
1334201909225,93.5074
1334201969226,93.3058
1334202029226,93.8629
1334202089226,93.5395
1334202149226,93.7110
1334202209226,93.6964
1334202269225,93.8403
1334202329225,93.4969
1334202389225,93.5371
1334202449225,94.4366
1334202509225,93.4403
1334202569225,94.1162
1334202629225,93.9890
1334202689225,93.5996
1334202749225,93.7259
1334202809225,93.8445
1334202869225,93.7268
1334202929225,94.0822
1334202989225,93.2382
1334203049225,93.5020
1334203109225,93.9281
1334203169225,93.2398
1334203229237,93.4745
1334203289237,94.0813
1334203349236,93.9655
1334203409236,94.2419
1334203469237,93.7277
1334203529237,93.6540
1334203589237,94.0730
1334203649237,93.5860
1334203709237,93.6923
1334203769237,93.6448
1334203829237,94.0336
1334203889237,93.3536
1334203949237,93.7675
1334204009236,93.9400
1334204069236,93.3455
1334204129236,93.9156
1334204189236,93.0356
1334204249236,93.4366
1334204309236,93.4265
1334204369236,93.4721
1334204429236,93.3704
1334204489237,93.4691
1334204549237,93.6997
1334204609237,92.9533
1334204669236,93.4399
1334204729236,93.7353
1334204789236,93.5993
1334204849237,93.3551
1334204909237,93.6564
1334204969237,93.7683
1334205029237,93.5385
1334205089237,93.4214
1334205149237,93.3043
1334205209237,93.4856
1334205269237,93.3888
1334205329236,93.4956
1334205389236,93.5305
1334205449236,93.3563
1334205509236,93.7482
1334205569236,93.8006
1334205629236,93.3423
1334205689236,93.4321
1334205749236,93.8495
1334205809236,92.9728
1334205869237,93.5372
1334205929237,93.8393
1334205989237,93.1974
1334206049236,93.2560
1334206109236,93.6559
1334206169237,92.9393
1334206229237,93.9223
1334206289237,93.2715
1334206349237,93.6191
1334206409237,93.1930
1334206469237,93.3826
1334206529237,93.3982
1334206589237,93.7016
1334206649237,93.5430
1334206709236,93.3782
1334206769236,93.5268
1334206829247,93.6036
1334206889247,93.6829
1334206949247,93.5697
1334207009247,93.1036
1334207069247,93.5401
1334207129247,93.4076
1334207189247,93.0212
1334207249247,93.1013
1334207309247,93.1773
1334207369247,93.0049
1334207429247,92.9702
1334207489247,93.2492
1334207549247,93.5389
1334207609247,93.6901
1334207669247,93.1136
1334207729247,93.1832
1334207789247,93.2835
1334207849247,93.0896
1334207909247,93.3609
1334207969247,93.0347
1334208029247,93.1638
1334208089247,93.3955
1334208149247,93.4217
1334208209247,93.1404
1334208269247,93.6929
1334208329247,93.6657
1334208389247,93.7407
1334208449247,93.5594
1334208509247,93.8586
1334208569247,93.3960
1334208629247,93.3486
1334208689247,93.1442
1334208749247,93.3122
1334208809247,93.2299
1334208869247,93.6553
1334208929247,92.7129
1334208989247,93.1678
1334209049247,93.0449
1334209109247,93.4382
1334209169247,93.5307
1334209229247,93.6979
1334209289247,93.5388
1334209349247,93.3057
1334209409247,93.2012
1334209469247,93.7076
1334209529247,93.3179
1334209589247,93.1383
1334209649247,93.3175
1334209709247,93.1309
1334209769247,93.0845
1334209829247,93.7392
1334209889247,93.3588
1334209949247,93.2856
1334210009247,93.4077
1334210069247,93.4028
1334210129247,93.1808
1334210189247,93.6398
1334210249247,93.5673
1334210309247,93.3697
1334210369247,93.7155
1334210429258,93.2749
1334210489258,93.5808
1334210549258,93.5268
1334210609258,93.3385
1334210669258,93.7997
1334210729258,93.0812
1334210789258,93.5171
1334210849258,93.6383
1334210909258,94.0980
1334210969258,93.6389
1334211029258,93.7381
1334211089258,93.8063
1334211149258,94.1126
1334211209258,93.6066
1334211269258,94.2654
1334211329258,93.2246
1334211389258,93.5146
1334211449258,93.9455
1334211509258,93.7325
1334211569258,94.0114
1334211629258,94.0652
1334211689258,93.8758
1334211749258,94.1556
1334211809258,94.0730
1334211869258,94.0840
1334211929258,93.9350
1334211989258,94.1422
1334212049258,94.3417
1334212109258,94.2378
1334212169258,93.7868
1334212229258,94.0872
1334212289258,94.2015
1334212349258,93.7547
1334212409258,94.0810
1334212469258,94.1135
1334212529258,94.2896
1334212589258,93.9778
1334212649258,93.6577
1334212709258,93.6041
1334212769258,93.3936
1334212829258,93.7953
1334212889258,93.1953
1334212949258,93.7440
1334213009258,93.7954
1334213069258,93.7472
1334213129258,93.6235
1334213189258,93.5947
1334213249258,94.0411
1334213309258,93.9713
1334213369258,93.6138
1334213429258,93.6520
1334213489258,93.3639
1334213549258,94.1163
1334213609258,93.8382
1334213669258,93.6790
1334213729258,93.4281
1334213789258,93.6190
1334213849258,93.7703
1334213909258,93.5371
1334213969258,93.3332
1334214029269,93.2889
1334214089269,92.9855
1334214149269,94.1948
1334214209269,93.2840
1334214269269,93.3144
1334214329269,93.4708
1334214389269,94.1454
1334214449269,93.7700
1334214509269,93.3698
1334214569269,93.1244
1334214629269,93.2686
1334214689269,93.3382
1334214749269,93.6404
1334214809269,93.4088
1334214869269,93.3233
1334214929269,93.3947
1334214989269,92.9465
1334215049269,93.4471
1334215109269,93.7729
1334215169269,93.6632
1334215229269,93.4102
1334215289269,93.0302
1334215349269,93.5122
1334215409269,93.5471
1334215469269,93.8552
1334215529269,93.5333
1334215589269,93.3280
1334215649269,94.1101
1334215709269,93.4923
1334215769269,93.7001
1334215829269,93.5531
1334215889269,93.8076
1334215949269,93.5520
1334216009269,93.4984
1334216069269,93.6195
1334216129269,93.9106
1334216189269,94.1024
1334216249269,93.6303
1334216309269,93.8524
1334216369269,93.9271
1334216429269,93.7296
1334216489269,93.5405
1334216549269,93.5184
1334216609269,93.8900
1334216669269,93.8332
1334216729269,93.8669
1334216789269,94.2209
1334216849269,93.6167
1334216909269,94.5956
1334216969269,94.0413
1334217029269,94.2399
1334217089269,93.7921
1334217149269,93.7145
1334217209269,94.2241
1334217269269,94.3141
1334217329269,94.3042
1334217389269,93.8971
1334217449269,94.5346
1334217509269,94.1313
1334217569269,93.9051
1334217629280,94.1354
1334217689280,94.1135
1334217749280,94.2558
1334217809280,94.1173
1334217869280,94.5022
1334217929280,93.8973
1334217989280,94.6724
1334218049280,94.3727
1334218109280,93.9810
1334218169280,94.1017
1334218229280,94.1930
1334218289280,94.3956
1334218349280,94.4859
1334218409280,94.0506
1334218469280,94.0739
1334218529280,94.0044
1334218589280,94.4191
1334218649280,94.3703
1334218709280,94.4446
1334218769280,94.4930
1334218829280,94.4891
1334218889280,94.2305
1334218949280,94.4024
1334219009280,94.0001
1334219069280,94.3050
1334219129280,94.1603
1334219189280,94.1814
1334219249280,94.0006
1334219309280,94.0266
1334219369280,94.2940
1334219429280,94.0489
1334219489280,93.6682
1334219549280,94.2014
1334219609280,94.0759
1334219669280,94.0131
1334219729280,93.8492
1334219789280,93.5964
1334219849280,94.5653
1334219909280,94.0887
1334219969280,94.0200
1334220029280,93.8757
1334220089280,94.3793
1334220149280,93.8293
1334220209280,94.1903
1334220269280,93.3442
1334220329280,93.9392
1334220389280,93.9827
1334220449280,93.9969
1334220509280,93.6236
1334220569280,94.0413
1334220629280,93.7355
1334220689280,94.3762
1334220749280,93.2562
1334220809280,94.1244
1334220869280,94.3015
1334220929280,93.4840
1334220989280,93.8717
1334221049280,93.7198
1334221109280,93.7629
1334221169280,94.1450
1334221229291,94.0640
1334221289291,94.6300
1334221349291,93.6926
1334221409291,93.9183
1334221469291,93.9962
1334221529291,93.8014
1334221589291,93.8686
1334221649291,93.8164
1334221709291,94.0697
1334221769291,94.1717
1334221829291,93.9128
1334221889291,94.4096
1334221949291,94.4390
1334222009291,94.3622
1334222069291,93.7589
1334222129291,93.7438
1334222189291,93.9946
1334222249291,93.9791
1334222309291,94.1489
1334222369291,93.6119
1334222429291,94.0121
1334222489291,93.9297
1334222549291,94.2237
1334222609291,94.3326
1334222669291,94.0350
1334222729291,93.4205
1334222789291,94.3967
1334222849291,94.3053
1334222909291,93.9438
1334222969291,94.0128
1334223029291,93.7331
1334223089291,93.6927
1334223149291,94.0688
1334223209291,94.0475
1334223269291,94.5439
1334223329291,94.5211
1334223389291,93.6787
1334223449291,93.7517
1334223509291,94.4996
1334223569291,94.0768
1334223629291,93.7552
1334223689291,94.3409
1334223749291,93.4734
1334223809291,93.4162
1334223869291,93.8848
1334223929291,93.9274
1334223989291,94.4536
1334224049291,93.6634
1334224109291,93.8285
1334224169291,93.9189
1334224229291,93.6663
1334224289291,93.7993
1334224349291,93.6476
1334224409291,93.7469
1334224469291,93.7539
1334224529291,94.1262
1334224589291,93.9352
1334224649291,94.3254
1334224709291,93.9658
1334224769291,93.8703
1334224829302,94.0117
1334224889302,93.5785
1334224949302,93.9987
1334225009302,93.4623
1334225069302,93.7330
1334225129302,93.6995
1334225189302,93.9355
1334225249302,93.5364
1334225309302,94.0574
1334225369302,94.0925
1334225429302,94.2976
1334225489302,93.8929
1334225549302,93.6948
1334225609302,93.9816
1334225669302,93.6628
1334225729302,93.6061
1334225789302,93.9309
1334225849302,93.5684
1334225909302,93.9363
1334225969302,93.5030
1334226029302,93.4351
1334226089302,93.2857
1334226149302,93.8303
1334226209302,93.8280
1334226269302,93.5884
1334226329302,92.7132
1334226389302,93.2398
1334226449302,93.6950
1334226509302,93.6879
1334226569302,93.9055
1334226629302,93.6341
1334226689302,93.6091
1334226749302,93.2073
1334226809302,93.8861
1334226869302,93.3379
1334226929302,93.8064
1334226989302,93.5396
1334227049302,93.8766
1334227109302,93.7166
1334227169302,93.8411
1334227229302,93.7948
1334227289302,93.5498
1334227349302,93.4503
1334227409302,93.6669
1334227469302,93.4784
1334227529302,93.6085
1334227589302,93.9698
1334227649302,93.2805
1334227709302,93.4803
1334227769302,93.4455
1334227829302,93.4031
1334227889302,93.5227
1334227949302,93.5880
1334228009302,93.8346
1334228069302,93.0875
1334228129302,93.4274
1334228189302,93.4690
1334228249302,93.0147
1334228309302,93.4823
1334228369302,93.4315
1334228429313,93.5461
1334228489313,93.6431
1334228549313,94.1073
1334228609313,93.7417
1334228669313,93.5628
1334228729313,93.2276
1334228789313,93.3031
1334228849313,93.6339
1334228909313,93.7126
1334228969313,93.9592
1334229029313,93.6620
1334229089313,93.6565
1334229149313,94.1019
1334229209313,93.6022
1334229269313,93.7146
1334229329313,93.9286
1334229389313,93.8569
1334229449313,93.9286
1334229509313,93.6083
1334229569313,93.8668
1334229629313,94.1841
1334229689313,93.5929
1334229749313,94.0258
1334229809313,93.7022
1334229869313,93.8319
1334229929313,93.5616
1334229989313,93.7253
1334230049313,93.7549
1334230109313,93.2344
1334230169313,93.6640
1334230229313,93.8523
1334230289313,93.7636
1334230349313,93.7680
1334230409313,93.7924
1334230469313,94.2360
1334230529313,94.0088
1334230589313,93.6743
1334230649313,94.2490
1334230709313,93.9172
1334230769313,94.0204
1334230829313,93.6525
1334230889313,94.2077
1334230949313,93.8908
1334231009313,93.6176
1334231069313,93.7113
1334231129313,94.1677
1334231189313,94.2938
1334231249313,94.8356
1334231309313,93.8532
1334231369313,94.1445
1334231429313,94.1768
1334231489313,94.1450
1334231549313,94.5828
1334231609313,94.3865
1334231669313,93.7408
1334231729313,94.2523
1334231789313,94.1007
1334231849313,94.0952
1334231909313,94.5497
1334231969313,94.5238
1334232029323,93.7330
1334232089323,94.7332
1334232149323,94.7265
1334232209323,94.2138
1334232269323,94.2195
1334232329323,94.7305
1334232389323,94.7029
1334232449323,94.7014
1334232509323,94.5723
1334232569323,95.0590
1334232629323,94.8292
1334232689323,95.1650
1334232749323,94.9324
1334232809323,95.1272
1334232869323,94.9458
1334232929323,95.2771
1334232989323,94.8897
1334233049323,94.8263
1334233109323,94.4426
1334233169323,94.6573
1334233229323,94.7541
1334233289323,95.5926
1334233349323,94.6415
1334233409323,95.3138
1334233469323,95.3687
1334233529323,95.2430
1334233589323,95.5106
1334233649323,95.3311
1334233709323,95.2762
1334233769323,95.2890
1334233829323,95.4371
1334233889323,95.3776
1334233949323,95.3302
1334234009323,95.2457
1334234069323,95.4518
1334234129323,95.0733
1334234189323,95.4189
1334234249323,95.1895
1334234309323,94.8237
1334234369323,95.1075
1334234429323,95.1523
1334234489323,95.1444
1334234549323,94.9261
1334234609323,95.4194
1334234669323,95.2590
1334234729323,95.1657
1334234789323,95.1886
1334234849323,95.1646
1334234909323,95.5204
1334234969323,95.5062
1334235029323,95.0328
1334235089323,95.2223
1334235149323,95.1436
1334235209323,94.9869
1334235269323,95.4883
1334235329323,95.0640
1334235389323,94.9412
1334235449323,95.0795
1334235509323,95.1546
1334235569323,95.0861
1334235629334,95.4262
1334235689334,95.2890
1334235749334,94.9391
1334235809334,94.6480
1334235869334,94.9349
1334235929334,94.7461
1334235989334,94.7832
1334236049334,94.6904
1334236109334,94.5945
1334236169334,94.8703
1334236229334,95.0635
1334236289334,95.1000
1334236349334,94.6903
1334236409334,94.9857
1334236469334,94.4347
1334236529334,94.7539
1334236589334,94.9416
1334236649334,94.7563
1334236709334,94.9106
1334236769334,95.0030
1334236829334,94.5790
1334236889334,94.8549
1334236949334,94.4742
1334237009334,95.3003
1334237069334,94.8379
1334237129334,95.2704
1334237189334,94.8242
1334237249334,94.8682
1334237309334,94.4949
1334237369334,94.9112
1334237429334,94.8297
1334237489334,94.8880
1334237549334,94.7409
1334237609334,94.9068
1334237669334,95.1399
1334237729334,94.8657
1334237789334,94.5002
1334237849334,94.9366
1334237909334,95.2596
1334237969334,95.0305
1334238029334,94.4366
1334238089334,94.7190
1334238149334,95.1899
1334238209334,95.1764
1334238269334,95.4497
1334238329334,94.9817
1334238389334,94.8129
1334238449334,95.1099
1334238509334,94.7497
1334238569334,94.8980
1334238629334,94.7103
1334238689334,94.8326
1334238749334,94.9753
1334238809334,95.2349
1334238869334,95.2747
1334238929334,95.1524
1334238989334,95.2483
1334239049334,94.6498
1334239109334,95.0669
1334239169334,94.6924
1334239229344,94.8497
1334239289344,95.2093
1334239349345,94.7292
1334239409345,94.4356
1334239469345,94.8135
1334239529344,94.8110
1334239589344,95.2772
1334239649345,95.3435
1334239709345,94.7373
1334239769345,94.6501
1334239829345,94.7240
1334239889345,95.1067
1334239949345,95.2599
1334240009345,95.0629
1334240069345,94.6870
1334240129345,94.9521
1334240189344,95.0331
1334240249344,94.8752
1334240309344,94.9605
1334240369344,94.5545
1334240429344,94.5127
1334240489344,94.9237
1334240549344,95.0382
1334240609344,94.5781
1334240669345,94.8480
1334240729345,94.9227
1334240789345,94.7531
1334240849345,94.9670
1334240909344,95.1463
1334240969344,94.7645
1334241029345,94.6874
1334241089345,95.0704
1334241149345,95.1722
1334241209345,94.8379
1334241269345,94.8075
1334241329345,95.0971
1334241389345,94.7483
1334241449345,94.9801
1334241509345,95.0867
1334241569344,95.3372
1334241629344,95.2369
1334241689344,95.1531
1334241749344,95.2366
1334241809344,95.4489
1334241869344,94.8283
1334241929344,94.8214
1334241989344,95.1224
1334242049345,95.3657
1334242109345,95.5588
1334242169345,94.5762
1334242229344,95.0401
1334242289344,94.4528
1334242349345,94.8912
1334242409345,95.0621
1334242469345,94.6188
1334242529345,94.8842
1334242589345,94.8632
1334242649345,95.3174
1334242709345,95.0068
1334242769345,95.0540
1334242829355,95.0129
1334242889355,94.8657
1334242949355,95.3087
1334243009355,94.7101
1334243069355,95.1348
1334243129355,94.9988
1334243189355,94.8388
1334243249355,94.6556
1334243309355,95.0680
1334243369355,95.2847
1334243429355,95.2074
1334243489355,94.9839
1334243549355,94.4593
1334243609355,95.1951
1334243669355,94.5981
1334243729355,95.3251
1334243789355,94.7478
1334243849355,95.3097
1334243909355,94.5604
1334243969355,95.5298
1334244029355,94.8764
1334244089355,94.7714
1334244149355,95.6486
1334244209355,95.0537
1334244269355,95.1625
1334244329355,95.1379
1334244389355,94.7591
1334244449355,95.1403
1334244509355,95.8447
1334244569355,95.3296
1334244629355,95.1232
1334244689355,95.1541
1334244749355,95.3268
1334244809355,95.0661
1334244869355,95.1762
1334244929355,95.4730
1334244989355,95.2656
1334245049355,94.9233
1334245109355,94.7796
1334245169355,95.4570
1334245229355,94.7693
1334245289355,94.9619
1334245349355,95.1495
1334245409355,95.1266
1334245469355,94.7702
1334245529355,94.8576
1334245589355,94.2174
1334245649355,94.6279
1334245709355,94.7897
1334245769355,94.7216
1334245829355,94.7065
1334245889355,94.6647
1334245949355,95.3678
1334246009355,95.3575
1334246069355,95.3243
1334246129355,95.5867
1334246189355,95.2300
1334246249355,94.5768
1334246309355,94.6298
1334246369355,95.0908
1334246429365,94.4281
1334246489365,94.7149
1334246549365,94.6555
1334246609365,95.0881
1334246669365,94.8070
1334246729365,95.1412
1334246789365,94.2747
1334246849365,94.5278
1334246909365,94.6124
1334246969365,95.0311
1334247029365,94.5455
1334247089365,94.9075
1334247149365,94.6572
1334247209365,95.0063
1334247269365,94.5555
1334247329365,94.6471
1334247389365,94.6497
1334247449365,94.9484
1334247509365,95.0313
1334247569365,94.8024
1334247629365,94.5722
1334247689365,95.0342
1334247749365,94.9163
1334247809365,94.5003
1334247869365,94.6210
1334247929365,94.5158
1334247989365,94.9433
1334248049365,95.1346
1334248109365,94.9007
1334248169365,94.7987
1334248229365,94.9931
1334248289365,94.8043
1334248349365,95.1471
1334248409365,95.6539
1334248469365,94.9962
1334248529365,94.8795
1334248589365,95.1095
1334248649365,95.0227
1334248709365,94.8873
1334248769365,94.9357
1334248829365,95.4276
1334248889365,95.1048
1334248949365,94.5258
1334249009365,94.4168
1334249069365,95.1807
1334249129365,95.1115
1334249189365,95.7722
1334249249365,95.1433
1334249309365,95.3136
1334249369365,95.0108
1334249429365,95.3622
1334249489365,95.1281
1334249549365,95.2196
1334249609365,94.9818
1334249669365,95.0329
1334249729365,95.0951
1334249789365,95.5666
1334249849365,95.1104
1334249909365,95.0106
1334249969365,95.1028
1334250029376,95.5623
1334250089376,95.1977
1334250149376,94.6629
1334250209376,95.0559
1334250269376,95.4171
1334250329376,95.1417
1334250389376,94.7790
1334250449376,95.1067
1334250509376,95.0442
1334250569376,95.1837
1334250629376,95.0957
1334250689375,95.0652
1334250749375,94.9502
1334250809375,95.0946
1334250869375,94.9011
1334250929375,94.9854
1334250989375,94.7507
1334251049376,94.6581
1334251109376,95.3927
1334251169376,94.9623
1334251229376,94.9721
1334251289376,94.8736
1334251349375,95.4083
1334251409376,94.7889
1334251469376,95.2761
1334251529376,95.2829
1334251589376,95.0248
1334251649376,95.0712
1334251709376,95.1816
1334251769376,95.7761
1334251829376,95.4176
1334251889376,95.6242
1334251949376,95.0445
1334252009375,95.1170
1334252069375,95.2484
1334252129375,95.6104
1334252189375,95.1098
1334252249375,94.8486
1334252309375,95.3565
1334252369376,95.0112
1334252429376,95.1999
1334252489376,95.5753
1334252549376,95.1711
1334252609376,95.3354
1334252669375,94.9687
1334252729376,95.1559
1334252789376,94.6119
1334252849376,95.2104
1334252909376,95.4207
1334252969376,94.4312
1334253029376,94.9575
1334253089376,94.8842
1334253149376,95.2693
1334253209376,94.9370
1334253269376,95.2205
1334253329376,95.4023
1334253389375,94.8829
1334253449375,95.3083
1334253509375,95.2017
1334253569375,95.3923
1334253629386,95.2369
1334253689386,95.4307
1334253749386,95.2975
1334253809386,95.1123
1334253869386,95.7159
1334253929386,95.5408
1334253989386,95.6102
1334254049386,95.2438
1334254109386,95.5029
1334254169386,95.4277